TimeCDT,TemperatureF,Dew PointF,Humidity,Sea Level PressureIn,VisibilityMPH,Wind Direction,Wind SpeedMPH,Gust SpeedMPH,PrecipitationIn,Events,Conditions,WindDirDegrees,DateUTC
12:02 AM,62.6,60.8,94,29.89,7.0,WSW,11.5,21.9,0.01,Rain-Thunderstorm,Light Rain,240,2013-05-21 05:02:00
12:42 AM,62.6,60.8,94,29.86,9.0,South,3.5,-,0.06,Rain,Light Rain,190,2013-05-21 05:42:00
12:53 AM,62.1,60.1,93,29.88,8.0,SSW,10.4,19.6,0.07,Rain,Light Rain,200,2013-05-21 05:53:00
1:38 AM,62.6,60.8,94,29.78,10.0,ESE,5.8,-,0.02,,Scattered Clouds,110,2013-05-21 06:38:00
1:53 AM,61.0,61.0,100,29.77,10.0,SSE,4.6,-,0.02,,Clear,160,2013-05-21 06:53:00
2:53 AM,60.1,60.1,100,29.78,9.0,Calm,Calm,-,N/A,,Clear,0,2013-05-21 07:53:00
3:53 AM,60.1,60.1,100,29.76,9.0,Calm,Calm,-,N/A,,Clear,0,2013-05-21 08:53:00
4:53 AM,61.0,59.0,93,29.80,10.0,South,6.9,-,N/A,,Partly Cloudy,190,2013-05-21 09:53:00
5:51 AM,62.6,59.0,88,29.86,10.0,SW,9.2,-,N/A,Thunderstorm,Thunderstorm,220,2013-05-21 10:51:00
5:53 AM,62.1,59.0,90,29.84,10.0,SW,9.2,-,N/A,Thunderstorm,Thunderstorm,220,2013-05-21 10:53:00
6:37 AM,62.6,59.0,88,29.70,8.0,East,28.8,44.9,0.06,Rain,Light Rain,80,2013-05-21 11:37:00
6:53 AM,62.1,59.0,90,29.75,10.0,Variable,4.6,-,0.06,,Scattered Clouds,0,2013-05-21 11:53:00
7:53 AM,62.1,60.1,93,29.79,9.0,SW,8.1,-,N/A,,Clear,220,2013-05-21 12:53:00
8:53 AM,66.0,62.1,87,29.85,9.0,Variable,4.6,-,N/A,,Clear,0,2013-05-21 13:53:00
9:53 AM,63.0,61.0,93,29.81,4.0,Calm,Calm,-,0.04,Rain,Light Rain,0,2013-05-21 14:53:00
10:53 AM,64.0,62.1,93,29.84,9.0,SSE,11.5,-,0.00,,Partly Cloudy,160,2013-05-21 15:53:00
11:53 AM,64.0,62.1,93,29.91,4.0,Variable,5.8,-,0.02,Rain,Rain,0,2013-05-21 16:53:00
12:53 PM,64.0,62.1,93,29.91,4.0,SW,4.6,-,0.05,Rain,Rain,230,2013-05-21 17:53:00
1:07 PM,64.4,60.8,88,29.93,3.0,WSW,5.8,-,0.05,Rain-Thunderstorm,Rain,240,2013-05-21 18:07:00
1:16 PM,62.6,60.8,94,29.93,2.5,WSW,5.8,-,0.09,Rain,Rain,240,2013-05-21 18:16:00
1:28 PM,62.6,60.8,94,29.93,2.0,SW,4.6,-,0.15,Rain-Thunderstorm,Heavy Rain,230,2013-05-21 18:28:00
1:43 PM,62.6,60.8,94,29.91,2.0,Calm,Calm,-,0.20,Rain,Rain,0,2013-05-21 18:43:00
1:53 PM,63.0,60.1,90,29.88,3.0,Calm,Calm,-,0.22,Rain-Thunderstorm,Thunderstorms and Rain,0,2013-05-21 18:53:00
2:13 PM,64.4,62.6,94,29.88,9.0,Calm,Calm,-,0.01,Rain,Light Rain,0,2013-05-21 19:13:00
2:53 PM,66.0,63.0,90,29.82,9.0,Calm,Calm,-,0.01,,Scattered Clouds,0,2013-05-21 19:53:00
3:53 PM,66.0,63.0,90,29.75,9.0,South,8.1,-,N/A,,Scattered Clouds,170,2013-05-21 20:53:00
4:53 PM,66.0,62.1,87,29.75,9.0,SSW,6.9,-,0.00,,Mostly Cloudy,200,2013-05-21 21:53:00
5:53 PM,64.9,61.0,87,29.85,7.0,West,6.9,-,0.03,Rain,Light Rain,280,2013-05-21 22:53:00
6:53 PM,63.0,60.1,90,29.83,5.0,WSW,5.8,-,0.05,Rain,Light Rain,240,2013-05-21 23:53:00
7:53 PM,62.1,60.1,93,29.78,9.0,SSW,8.1,-,0.01,Rain,Light Rain,200,2013-05-22 00:53:00
8:53 PM,61.0,59.0,93,29.65,10.0,SE,12.7,18.4,0.00,,Partly Cloudy,130,2013-05-22 01:53:00
9:53 PM,61.0,57.9,90,29.70,10.0,SSW,3.5,-,N/A,,Clear,210,2013-05-22 02:53:00
10:53 PM,61.0,57.9,90,29.78,10.0,West,3.5,-,N/A,,Clear,260,2013-05-22 03:53:00
11:53 PM,61.0,57.0,87,29.79,10.0,Calm,Calm,-,N/A,,Partly Cloudy,0,2013-05-22 04:53:00